Location: Berkeley
(37.8716°N, 122.2727°W)
Time: 06:36:44
(UTC-07:00)

BlueWalker 3 - Pass Details

Date: 10 May 2026
Orbit: 447 x 457 km, 53.2° (Epoch: 5 June)

Event Time Altitude Azimuth Distance (km) Brightness Sun altitude
Exits shadow 03:27:54 23° 343° (NNW) 998 3.7 -25.2°
Drops below altitude 10° 03:30:19 10° 24° (NNE) 1,574 5.4 -24.9°
Sets 03:32:44 0° 39° (NE) 2,449 6.9 -24.6°
